Location: Bakhuizen
(52.8696°N, 5.4575°E)
Time: 22:02:03
(UTC+00:00)

Cosmos 1242 Rocket - Pass Details

Date: 11 May 2021
Orbit: 446 x 484 km, 81.2° (Epoch: 24 June)

Event Time Altitude Azimuth Distance (km) Brightness Sun altitude
Rises 20:25:51 0° 200° (SSW) 2,510 5.9 -8.2°
Reaches altitude 10° 20:27:58 10° 203° (SSW) 1,631 5.0 -8.4°
Maximum altitude 20:31:30 62° 285° (WNW) 531 3.0 -8.8°
Drops below altitude 10° 20:35:02 10° 7° (N) 1,623 5.8 -9.1°
Sets 20:37:07 0° 11° (NNE) 2,497 6.7 -9.3°
